星链-1079 (STARLINK-1079 )

导读 | 星芒AI

STARLINK-1079 是 SpaceX Starlink 项目中的一颗低轨通信卫星,属于第二代 Starlink 卫星(Gen2)。该卫星于 2023 年发射,旨在为全球提供高速、低延迟的互联网服务。它搭载了先进通信设备和激光链路,支持卫星间直接通信,提升网络效率与覆盖范围。作为 Starlink 卫星群的一部分,STARLINK-1079 主要服务于偏远和网络基础设施薄弱地区,助力实现全球互联网接入目标。

基本信息
目录编号:
44937
目录名称:
STARLINK-1079
国际标识:
2020-001Z
轨道中心:
EARTH
卫星名称:
星链-1079
卫星全名:
星链-1079 (STARLINK-1079 )
卫星状态:
已陨落 最后检测时间 2025-08-11
发射日期:
2020-01-07 UTC
国别 :
美国 (US)
星等 :
--
轨道信息
数据来源 国际轨道数据
星历时间: 2025-08-11T11:49:10+0800
轨道信息已过期79天
半长轴: 6526.177km
偏心率: 0.0011018
轨道倾角: 53.011°
近地点辐角 283.015°
升交点赤经 63.935°
平近点角 181.641°
近地点: 140.851km
远地点: 155.233km
周期: 87.448分钟
每日圈数: 16.467001
详细信息
固有亮度:
5
最大亮度:
2.5
卫星平台:
Starlink V1.0
覆盖范围:
全球
运营商:
太空探索技术公司
运营商所在国:
美国
制造商(研发单位):
太空探索技术公司
制造商所在国:
美国
使用方式:
暂无
卫星简介
星链(Starlink)计划是由太空探索技术公司(SpaceX)提出的一个巨型低轨卫星互联网星座项目,计划在2019年至2024年间在太空搭建由约1.2万颗卫星组成的“星链”网络,其中1584颗将部署在地球上空550千米处的近地轨道,并从2020年开始工作。该卫星仍在工作。